Location: Unspecified
(44.0704°N, 88.6889°W)
Time: 03:55:13
(UTC+02:00)

Vanguard 2 Rocket - Visible Passes

Search period start: 17 June 2019 00:00
Search period end: 27 June 2019 00:00
Orbit: 554 x 3326 km, 32.9° (Epoch: 16 June)

Date Brightness Start Highest point End Pass type
(mag) Time Alt. Az. Time Alt. Az. Time Alt. Az.
17 Jun 9.5 04:12:48 10° SSE 04:16:38 13° SE 04:21:09 10° ESE visible
17 Jun 9.0 06:18:59 10° SW 06:28:46 39° SSE 06:43:57 10° E visible
17 Jun 9.2 08:30:38 10° WSW 08:43:46 56° S 09:02:51 10° ESE visible
17 Jun 9.6 10:44:36 10° W 11:00:33 51° SSW 11:19:33 10° SE visible
18 Jun 9.1 05:20:55 10° SSW 05:28:55 29° SE 05:40:59 10° E visible
18 Jun 9.0 07:31:20 10° WSW 07:42:45 52° SSE 08:00:32 10° E visible
18 Jun 9.4 09:44:24 10° W 09:58:56 55° S 10:18:17 10° ESE visible
19 Jun 9.2 04:23:44 10° S 04:29:34 19° SE 04:37:32 10° E visible
19 Jun 8.9 06:32:29 10° SW 06:42:14 45° SSE 06:57:58 10° E visible
19 Jun 9.2 08:44:38 10° WSW 08:57:33 56° S 09:16:30 10° ESE visible
19 Jun 9.7 10:58:51 10° W 11:14:07 45° SSW 11:32:28 10° SE visible
20 Jun 8.8 05:34:04 10° SSW 05:42:14 36° SSE 05:55:17 10° E visible
20 Jun 9.0 07:45:15 10° WSW 07:56:30 54° S 08:14:17 10° ESE visible
20 Jun 9.5 09:58:34 10° W 10:12:40 49° SSW 10:31:29 10° SE visible
21 Jun 8.9 04:36:14 10° SSW 04:42:44 25° SE 04:52:27 10° E visible
21 Jun 8.8 06:46:15 10° WSW 06:55:54 49° SSE 07:11:51 10° E visible
21 Jun 9.2 08:58:44 10° W 09:11:21 52° S 09:29:55 10° ESE visible
21 Jun 9.8 11:13:20 10° W 11:27:38 37° SSW 11:44:51 10° SSE visible
22 Jun 8.6 05:47:37 10° SW 05:55:46 41° SSE 06:09:19 10° E visible
22 Jun 8.9 07:59:18 10° WSW 08:10:21 53° S 08:27:53 10° ESE visible
22 Jun 9.5 10:12:54 10° W 10:26:21 42° SSW 10:44:16 10° SE visible
23 Jun 8.6 04:49:24 10° SSW 04:56:08 32° SSE 05:06:50 10° E visible
23 Jun 8.7 07:00:13 10° WSW 07:09:42 50° S 07:25:35 10° ESE visible
23 Jun 9.3 09:12:59 10° W 09:25:10 46° SSW 09:43:01 10° SE visible
23 Jun 10.0 11:28:15 10° W 11:41:06 28° SSW 11:56:27 10° SSE visible
24 Jun 8.5 06:01:26 10° SW 06:09:30 45° SSE 06:23:13 10° E visible
24 Jun 9.0 08:13:28 10° WSW 08:24:13 49° S 08:41:15 10° ESE visible
24 Jun 9.7 10:27:29 10° W 10:40:00 34° SSW 10:56:27 10° SSE visible
25 Jun 8.4 05:02:58 10° SW 05:09:44 37° SSE 05:20:55 10° E visible
25 Jun 8.7 07:14:18 10° WSW 07:23:37 49° S 07:39:10 10° ESE visible
25 Jun 9.4 09:27:23 10° W 09:38:59 39° SSW 09:55:39 10° SE visible
26 Jun 8.4 04:04:55 10° SSW 04:10:23 27° SSE 04:18:45 10° E visible
26 Jun 8.4 06:15:27 10° WSW 06:23:23 46° S 06:36:58 10° ESE visible
26 Jun 9.0 08:27:46 10° W 08:38:08 42° SSW 08:54:15 10° SE visible
26 Jun 9.8 10:42:35 10° W 10:53:40 26° SSW 11:07:46 10° SSE visible
